EW9997 Weather Reports


time (UTC)temp
C
wind
direction
speed
KPH
gust
KPH
rain 1hr
cm
rain 24hr
cm
rain mn
cm
humidity
%
barometer
mb
20200606171551 23 88 0.0 6.4 0.00 0.00 0.00 53 1003.6
20200606170043 24 143 1.6 8.0 0.00 0.00 0.00 51 1003.7
20200606164603 25 44 1.6 6.4 0.00 0.00 0.00 50 1003.6
20200606163049 25 146 3.2 9.7 0.00 0.00 0.00 48 1003.6
20200606161634 25 233 0.0 6.4 0.00 0.00 0.00 50 1003.5
20200606160046 26 100 0.0 6.4 0.00 0.00 0.00 45 1003.5
20200606154539 25 102 0.0 4.8 0.00 0.00 0.00 54 1003.5
20200606153041 24 187 0.0 0.0 0.00 0.00 0.00 51 1003.5
20200606151651 25 286 0.0 4.8 0.00 0.00 0.00 49 1003.5
20200606150105 26 128 0.0 11.3 0.00 0.00 0.00 42 1003.5
20200606144552 26 98 3.2 6.4 0.00 0.00 0.00 41 1003.6
20200606141533 27 260 1.6 9.7 0.00 0.00 0.00 43 1003.7
20200606140115 26 107 0.0 9.7 0.00 0.00 0.00 41 1003.7
20200606134559 27 143 4.8 9.7 0.00 0.00 0.00 40 1003.9
20200606133027 26 284 0.0 3.2 0.00 0.00 0.00 44 1003.9
20200606131543 27 190 0.0 4.8 0.00 0.00 0.00 39 1004.1
20200606130040 27 277 1.6 6.4 0.00 0.00 0.00 38 1004.1
20200606124553 27 282 0.0 8.0 0.00 0.00 0.00 37 1004.3
20200606123033 27 278 3.2 9.7 0.00 0.00 0.00 38 1004.4
20200606121534 27 293 3.2 11.3 0.00 0.00 0.00 39 1004.5
20200606120050 27 279 4.8 14.5 0.00 0.00 0.00 38 1004.7
20200606114516 26 260 1.6 6.4 0.00 0.00 0.00 46 1004.6
20200606113045 25 78 0.0 3.2 0.00 0.00 0.00 44 1004.9
20200606111541 25 228 0.0 4.8 0.00 0.00 0.00 50 1004.9
20200606110027 24 132 0.0 16.1 0.00 0.00 0.00 48 1004.9
20200606104548 24 117 0.0 4.8 0.00 0.00 0.00 49 1004.9
20200606103025 24 131 3.2 8.0 0.00 0.00 0.00 49 1004.9
20200606101518 23 87 0.0 8.0 0.00 0.00 0.00 51 1005.0
20200606100018 23 92 1.6 8.0 0.00 0.00 0.00 52 1004.9
20200606094513 23 186 0.0 8.0 0.00 0.00 0.00 55 1004.9
20200606093006 23 123 1.6 9.7 0.00 0.00 0.00 51 1004.8
20200606091659 23 181 0.0 6.4 0.00 0.00 0.00 50 1004.9
20200606090200 22 136 0.0 11.3 0.00 0.00 0.00 52 1004.8
20200606084650 23 259 3.2 11.3 0.00 0.00 0.00 49 1004.6
20200606083115 22 316 3.2 9.7 0.00 0.00 0.00 47 1004.6
20200606081642 21 69 1.6 6.4 0.00 0.00 0.00 48 1004.6
20200606080342 21 281 1.6 6.4 0.00 0.00 0.00 60 1004.7
20200606074623 20 317 1.6 6.4 0.00 0.00 0.00 55 1004.8
20200606073133 20 304 0.0 6.4 0.00 0.00 0.00 59 1004.9
20200606071640 20 290 1.6 9.7 0.00 0.00 0.00 60 1004.8
20200606070038 20 248 1.6 6.4 0.00 0.00 0.00 66 1004.7
20200606064650 18 32 0.0 9.7 0.00 0.00 0.00 66 1004.6
20200606063037 18 15 0.0 8.0 0.00 0.00 0.00 72 1004.7
20200606061549 17 62 0.0 6.4 0.00 0.00 0.00 71 1004.4
20200606060054 17 289 1.6 6.4 0.00 0.00 0.00 72 1004.5
20200606054536 17 235 0.0 4.8 0.00 0.00 0.00 73 1004.4
20200606053015 16 237 0.0 4.8 0.00 0.00 0.00 75 1004.5
20200606051514 16 239 0.0 9.7 0.00 0.00 0.00 77 1004.4
20200606050009 16 232 0.0 6.4 0.00 0.00 0.00 78 1004.2
20200606044549 15 286 1.6 8.0 0.00 0.00 0.00 78 1004.0
20200606043006 15 308 1.6 8.0 0.00 0.00 0.00 80 1004.0
20200606041651 14 254 0.0 11.3 0.00 0.00 0.00 84 1004.0
20200606040144 13 224 0.0 0.0 0.00 0.00 0.00 86 1003.9
20200606034645 13 179 0.0 6.4 0.00 0.00 0.00 88 1003.6
20200606033121 12 215 0.0 3.2 0.00 0.00 0.00 89 1003.3
20200606031641 12 105 0.0 1.6 0.00 0.00 0.00 90 1003.0
20200606030134 12 209 0.0 0.0 0.00 0.00 0.00 91 1002.8
20200606024652 12 150 0.0 0.0 0.00 0.00 0.00 92 1002.5
20200606023115 11 150 0.0 4.8 0.00 0.00 0.00 93 1002.3
20200606021616 11 69 0.0 0.0 0.00 0.00 0.00 93 1002.3
20200606020057 11 69 0.0 0.0 0.00 0.00 0.00 92 1002.1
20200606014620 12 69 0.0 4.8 0.00 0.00 0.00 91 1001.9
20200606013057 12 207 0.0 4.8 0.00 0.00 0.00 90 1001.9
20200606011607 12 232 0.0 9.7 0.00 0.00 0.00 90 1001.7
20200606010048 12 325 0.0 11.3 0.00 0.00 0.00 92 1001.5
20200606004612 12 203 1.6 8.0 0.00 0.00 0.00 93 1001.5
20200606003105 12 175 0.0 9.7 0.00 0.00 0.00 94 1001.3
20200606001551 12 69 0.0 0.0 0.00 0.00 0.00 95 1001.2
20200606000024 12 69 0.0 0.0 0.00 0.00 0.00 96 1001.1
20200605234536 12 66 0.0 0.0 0.00 0.00 0.00 96 1000.9
20200605233038 12 66 0.0 0.0 0.00 0.00 0.00 96 1000.8
20200605231613 12 65 0.0 0.0 0.00 0.00 0.00 96 1000.7
20200605230032 12 54 0.0 0.0 0.00 0.00 0.00 96 1000.8
20200605224532 12 52 0.0 0.0 0.00 0.00 0.00 96 1000.5
20200605223048 12 52 0.0 0.0 0.00 0.00 0.00 95 1000.5
20200605221536 12 51 0.0 0.0 0.00 0.00 0.00 95 1000.2
20200605220014 12 50 0.0 0.0 0.00 0.00 0.00 95 1000.1
20200605214513 12 50 0.0 0.0 0.00 0.00 0.00 95 999.9
20200605213032 12 51 0.0 0.0 0.00 0.00 0.00 95 999.8
20200605211518 13 51 0.0 0.0 0.00 0.00 0.00 95 999.9
20200605210025 13 49 0.0 0.0 0.00 0.00 0.00 95 999.9
20200605204533 13 49 0.0 0.0 0.00 0.00 0.00 95 999.9
20200605203020 13 326 0.0 0.0 0.00 0.00 0.00 95 999.7
20200605201519 13 326 0.0 0.0 0.00 0.00 0.00 94 999.7
20200605200006 13 325 0.0 1.6 0.00 0.00 0.00 94 999.6
20200605194510 13 281 1.6 6.4 0.00 0.00 0.00 94 999.6
20200605193003 13 311 0.0 6.4 0.00 0.00 0.00 94 999.5
20200605191801 13 306 0.0 3.2 0.00 0.00 0.00 94 999.4
20200605190007 13 312 0.0 0.0 0.00 0.00 0.00 93 999.3
20200605184503 13 312 0.0 3.2 0.00 0.00 0.00 93 998.8
20200605183009 13 311 0.0 1.6 0.00 0.00 0.00 93 998.8
20200605181641 14 275 0.0 8.0 0.00 0.00 0.00 92 998.5
20200605180141 14 282 1.6 14.5 0.00 0.00 0.00 91 998.5
20200605174622 15 293 6.4 16.1 0.00 0.00 0.00 90 998.4
20200605173059 15 299 6.4 19.3 0.00 0.00 0.00 88 998.0